Theta_e
349 350 350 350 350 350 350 350 350 350 350 350 350 350 351 351 351 351 352 349 345 345 344 344 343 342 343 343 342 342 344 343 344 346 342 348 349 337 335 337 336 337 337 337 338 338 338 339 339 340 341 342 343 343 343 343 343 344 344 345 345 345 345 345 344 344 344 344 344 345 345 345 345 345 345 346 347 347 349 351 351 352 351 352 351
349 350 350 350 350 351 351 350 350 350 350 351 351 352 351 352 352 351 352 350 346 346 345 344 343 342 344 343 342 342 343 344 344 346 343 346 348 343 341 342 342 342 342 342 342 342 341 341 342 341 342 342 342 343 343 343 343 343 344 344 344 344 344 343 344 343 344 344 345 345 345 346 345 346 349 351 352 353 354 354 354 355 354 354 353
349 350 350 351 351 351 351 351 351 351 351 353 353 354 354 354 354 353 353 351 348 348 345 344 342 342 343 344 343 343 345 347 346 346 346 346 349 349 345 344 345 345 345 345 345 345 345 346 345 346 346 346 346 346 347 347 346 347 347 347 347 348 348 348 348 348 348 349 349 349 349 349 349 351 354 355 355 355 356 356 355 355 354 354 353
350 351 351 351 352 352 353 352 352 353 352 354 356 356 356 354 355 355 354 352 349 348 346 344 344 342 342 344 344 344 347 348 345 344 345 346 350 351 348 348 347 346 346 347 346 347 347 348 347 348 347 348 348 348 348 348 348 348 348 349 351 352 353 355 354 354 354 354 354 353 352 353 354 355 356 355 355 355 355 354 354 354 353 353 353
352 352 352 353 354 353 353 354 354 354 355 357 357 356 354 352 351 353 353 351 349 348 346 344 344 344 342 344 345 344 347 348 346 345 347 347 348 349 349 350 351 347 345 346 346 347 347 347 347 347 348 348 348 347 347 348 348 349 350 351 352 352 354 355 354 354 353 353 353 353 353 355 356 355 355 355 354 353 353 352 352 350 348 346 344
355 355 354 353 354 354 354 355 356 355 356 357 356 353 352 351 350 350 351 350 348 348 346 344 345 346 345 345 345 346 348 348 347 346 347 347 346 348 347 349 352 349 348 348 346 345 346 346 347 348 348 347 347 347 349 350 350 351 352 352 351 350 351 351 351 351 351 351 352 352 353 354 355 354 354 352 350 350 351 348 342 337 332 330 328
357 357 354 353 353 354 355 356 358 356 356 356 355 354 353 353 352 351 350 349 347 346 346 346 345 344 345 346 345 347 348 345 346 345 345 346 345 347 347 347 347 347 349 350 349 346 345 347 348 348 347 348 348 349 351 351 351 352 352 350 349 350 349 350 350 351 351 351 352 352 353 354 353 352 350 348 349 349 347 339 328 323 322 321 321
357 357 355 352 352 354 356 357 358 356 355 355 354 354 353 353 355 353 351 350 347 345 345 344 344 343 345 346 345 348 347 345 349 346 344 346 346 344 345 347 347 347 349 349 350 349 346 347 349 349 349 349 349 351 351 351 350 350 348 348 349 350 349 350 350 350 350 351 351 351 352 351 349 348 348 349 351 349 341 329 322 321 321 320 319
356 358 356 353 353 354 355 357 358 357 358 356 354 353 352 354 356 354 352 350 348 345 344 343 343 344 346 345 345 347 346 345 347 344 344 347 346 345 344 346 347 349 350 346 346 349 350 351 350 350 349 349 351 351 350 349 348 347 347 348 348 348 347 347 346 345 345 346 346 347 346 345 346 349 351 350 349 346 337 330 331 329 327 325 321
357 360 359 353 354 354 355 357 358 358 359 356 354 354 354 353 354 354 353 350 349 347 346 345 344 343 344 344 344 345 345 345 346 346 347 346 344 344 343 345 346 346 345 343 344 347 351 353 352 352 350 348 350 350 348 347 347 347 347 347 346 346 345 344 344 344 343 343 342 343 343 346 349 350 350 349 348 345 342 342 343 341 339 337 329
357 360 360 355 355 355 356 358 357 360 359 355 354 355 356 355 354 355 354 349 348 346 345 346 345 344 344 344 344 345 346 345 346 347 346 343 344 344 343 344 344 344 345 344 345 345 347 351 354 355 353 349 346 346 346 347 349 349 349 350 350 350 349 349 348 347 346 345 345 345 346 349 349 348 347 348 347 347 347 348 347 348 347 346 337
358 359 361 358 357 356 356 358 356 359 360 356 356 356 356 357 354 354 353 349 348 346 345 347 345 345 346 345 345 345 347 347 348 346 344 343 343 344 344 344 343 345 345 343 344 344 343 348 349 349 353 355 350 349 349 348 349 352 352 353 353 354 354 353 353 351 350 349 348 347 347 348 346 346 347 346 347 348 348 348 349 349 348 349 342
359 361 361 359 360 357 358 359 358 359 361 359 358 357 355 357 356 354 352 349 350 347 345 348 345 345 346 346 345 346 347 348 347 345 344 342 341 342 343 345 344 343 344 344 345 346 343 345 344 343 350 355 355 356 356 354 349 349 351 352 353 354 354 354 354 354 354 353 351 350 348 349 348 347 347 347 348 348 348 349 350 351 349 349 345
361 363 362 361 360 359 359 360 359 358 359 359 357 357 356 357 357 354 351 349 348 347 347 350 348 345 346 347 346 346 347 347 346 345 344 342 340 342 344 344 344 342 344 346 346 346 343 343 344 346 350 353 353 355 357 356 351 349 350 351 352 353 353 354 354 354 355 355 354 354 353 351 351 350 350 349 349 349 350 350 351 351 351 349 347
360 361 360 362 361 360 359 358 359 358 359 360 359 358 357 357 358 354 352 351 348 347 349 350 349 346 347 348 346 345 347 347 345 345 344 343 341 343 343 342 343 343 345 345 345 346 344 346 347 348 351 352 351 353 353 353 356 356 354 352 351 352 352 352 353 353 354 355 354 355 355 355 354 353 353 352 351 350 350 350 351 352 351 350 349
359 359 359 362 361 361 360 358 358 359 358 359 359 358 356 357 357 354 353 353 350 348 347 350 351 351 352 350 349 351 352 350 346 346 344 343 341 342 344 341 342 344 343 342 343 345 343 345 347 348 349 349 350 352 352 352 357 359 359 355 352 352 353 352 353 353 353 354 354 355 355 356 356 356 355 354 353 351 350 350 351 352 352 350 349
358 359 359 361 362 361 362 361 359 359 358 357 356 356 355 356 356 355 354 354 353 349 347 348 350 351 353 354 355 355 353 349 349 348 346 345 342 341 344 343 341 343 343 343 342 342 342 342 344 346 347 347 350 353 352 352 353 357 358 357 353 352 354 352 352 352 352 353 353 354 355 355 356 356 356 356 355 354 352 352 352 352 353 351 349
359 360 359 361 363 361 361 361 360 359 358 358 356 353 353 355 356 356 355 353 354 354 350 348 349 349 349 351 354 354 353 350 352 352 345 345 344 341 343 344 342 344 344 344 341 340 342 342 342 345 347 349 351 351 350 350 353 354 356 357 355 354 353 353 353 353 352 353 353 354 354 354 355 356 356 356 356 356 354 353 353 352 353 352 350
358 362 362 361 363 362 361 361 360 359 358 358 356 353 354 355 357 358 357 354 355 356 353 351 349 349 348 348 348 348 350 351 354 355 351 349 347 343 344 343 343 342 342 344 342 341 343 343 343 344 345 348 350 350 349 349 353 353 354 355 354 353 353 353 354 354 353 353 353 354 354 354 355 356 356 356 355 356 356 355 354 353 353 353 351
359 361 362 362 361 363 361 360 360 359 358 358 356 355 355 355 357 358 358 356 355 355 355 354 351 351 350 350 349 347 348 349 350 354 354 353 350 347 345 343 342 341 341 343 342 342 343 342 343 344 346 347 348 351 350 349 350 350 351 350 346 349 354 353 353 355 354 354 354 354 355 354 354 355 355 356 355 356 356 356 355 354 353 353 352
360 360 361 361 360 362 361 360 361 359 357 357 355 355 357 357 358 359 358 358 356 355 356 355 354 352 351 353 353 349 348 348 348 349 350 352 353 351 347 345 346 344 342 343 342 342 342 341 344 344 347 349 349 351 352 351 351 351 353 350 343 346 352 353 353 354 353 353 354 354 354 354 353 354 354 354 355 355 356 356 355 355 354 353 353
358 359 360 360 360 361 359 358 359 357 356 358 355 354 356 357 359 359 359 358 358 358 356 354 354 354 353 354 355 352 351 350 349 348 347 350 352 351 349 348 349 346 345 344 343 343 343 343 345 344 346 348 349 350 351 352 353 354 356 349 343 348 351 351 352 351 352 352 352 352 353 353 352 352 351 351 353 353 354 356 355 356 355 353 354
357 357 357 358 359 360 358 357 359 357 356 358 356 355 355 356 358 359 359 359 359 359 357 355 354 353 352 352 352 352 352 350 351 351 348 348 351 350 349 350 348 347 347 346 346 346 346 345 344 345 348 348 349 352 349 349 353 356 354 345 347 354 350 347 351 351 351 351 348 349 348 351 351 350 349 349 350 352 353 355 355 355 355 354 354
356 356 356 358 359 359 358 358 359 359 358 359 359 357 356 357 358 358 359 360 359 360 358 356 355 353 352 352 351 350 351 350 350 352 350 350 350 348 350 350 347 349 348 348 348 347 347 347 347 347 349 347 349 355 351 348 353 356 351 346 354 359 352 348 349 345 346 345 344 347 347 348 349 348 348 348 348 351 351 354 355 354 355 354 354
357 357 356 356 358 361 361 362 362 362 360 361 361 361 360 359 359 359 359 360 360 360 358 356 355 354 352 354 352 350 352 350 350 352 350 351 351 349 352 349 346 347 348 350 351 348 348 349 350 350 348 346 346 349 348 346 350 353 348 348 356 360 357 353 344 335 336 338 340 345 347 348 349 348 349 349 349 351 351 353 354 354 354 354 353
357 356 355 356 356 359 361 362 364 363 361 361 361 362 361 360 360 360 358 360 360 359 358 356 355 353 353 354 353 352 353 352 351 351 350 351 352 351 352 349 348 348 346 348 349 348 349 349 350 350 349 347 345 344 346 344 347 350 347 348 354 357 357 350 337 331 333 334 336 339 341 342 344 345 347 349 349 350 351 352 354 354 354 354 353
357 358 357 358 358 360 360 361 364 363 361 361 361 360 360 359 361 360 358 359 359 359 357 356 354 355 354 353 353 352 353 353 351 353 352 352 352 352 352 352 354 353 347 348 348 347 351 349 349 351 350 349 347 345 347 348 349 351 349 348 351 355 353 343 335 334 333 333 333 334 335 335 337 338 340 345 348 350 350 351 353 354 354 354 353
357 359 359 359 360 361 359 360 364 364 361 360 360 361 362 360 361 361 359 359 360 359 358 357 355 355 354 354 353 352 354 355 353 352 353 352 351 352 353 354 357 358 353 354 352 348 349 349 347 349 350 351 350 347 349 351 351 352 349 348 350 353 349 339 339 342 338 336 334 332 333 335 335 336 335 338 344 347 348 348 350 353 355 355 354
357 356 357 358 360 361 359 358 362 363 362 360 359 361 362 359 360 361 358 359 362 361 359 358 357 356 355 355 355 354 356 356 353 352 354 355 352 352 354 355 357 359 359 359 357 351 349 347 346 349 351 352 351 350 349 350 351 350 349 347 350 352 347 340 343 347 344 341 339 333 332 334 335 335 333 334 338 341 342 342 345 351 355 355 355
355 355 356 358 359 359 359 360 362 362 362 360 359 361 361 359 361 361 359 360 362 361 360 359 357 356 355 355 355 356 356 356 355 354 356 358 357 356 356 357 357 359 360 359 359 355 351 346 344 350 352 351 352 351 350 349 349 350 349 347 350 352 346 343 347 348 346 344 342 338 335 333 335 337 336 337 338 338 339 341 344 348 353 356 356
355 356 356 357 358 358 359 360 361 362 362 360 361 362 359 359 360 358 358 359 360 360 360 359 356 356 357 356 356 356 356 357 356 354 356 357 358 357 357 359 359 361 361 359 359 357 352 347 347 349 351 352 351 351 351 349 348 349 349 347 350 350 347 346 347 346 344 344 343 342 338 336 336 338 338 339 339 340 340 341 344 346 349 354 355
354 356 355 355 356 358 358 358 358 359 360 359 360 361 361 360 359 357 358 359 360 361 360 358 357 358 359 358 357 358 357 357 357 356 356 356 357 357 356 358 359 360 360 360 360 360 355 351 349 349 351 352 350 352 352 349 347 349 349 348 349 348 346 346 344 342 342 344 344 343 340 340 341 340 339 341 340 340 340 341 344 346 346 349 350
354 355 355 355 357 356 356 356 357 358 361 361 360 361 363 362 360 358 359 359 360 361 361 361 359 359 360 360 359 359 358 357 358 357 356 355 354 354 355 357 356 356 359 359 360 361 358 355 352 350 350 351 351 351 351 348 347 348 348 349 347 346 343 343 342 341 341 344 344 341 339 341 344 345 344 344 345 343 341 341 344 346 345 345 345
353 355 355 355 356 356 355 356 356 358 362 362 360 360 361 363 362 359 357 358 358 358 360 361 359 359 359 361 360 359 358 357 358 356 356 355 353 353 354 355 355 356 358 360 361 361 358 356 355 352 350 352 352 350 349 349 349 348 348 348 347 344 343 341 341 339 341 344 342 339 340 343 346 347 347 349 349 347 344 343 344 346 347 345 344
353 353 354 355 356 357 356 358 358 359 362 363 359 360 361 363 363 359 357 358 359 358 359 359 359 358 358 360 359 358 357 358 359 357 356 355 354 354 355 356 357 357 357 358 360 359 358 357 356 354 352 352 352 350 349 349 348 347 347 347 346 345 344 342 340 339 341 342 340 339 341 345 346 347 348 349 350 350 348 346 345 346 347 346 344
350 351 353 353 357 359 359 359 361 360 361 361 359 360 362 362 361 360 358 359 360 360 359 359 359 359 359 360 360 359 358 359 359 357 355 356 356 356 356 356 357 358 357 357 358 358 357 357 357 356 354 354 353 351 349 348 347 347 346 346 347 347 346 345 342 340 341 341 340 343 345 346 346 347 349 349 350 351 350 350 347 346 346 346 345
346 348 352 354 358 361 360 359 360 360 359 360 359 361 360 360 360 359 359 360 359 359 359 360 359 358 358 358 358 358 358 357 358 357 356 357 357 356 356 356 356 357 356 356 357 356 357 357 357 357 356 354 352 350 349 348 348 348 348 349 349 348 348 349 346 343 341 342 343 346 347 347 346 349 349 349 350 351 352 352 350 347 346 347 347
345 345 349 353 358 361 360 359 360 361 360 359 359 360 360 360 360 359 359 360 359 359 358 358 358 357 356 356 356 357 357 356 356 356 356 356 356 354 355 356 356 355 355 355 355 356 355 356 355 354 353 350 348 348 348 347 347 347 349 350 349 348 350 352 352 349 345 344 347 349 348 348 348 349 350 349 350 351 351 353 353 349 346 347 347
347 344 347 351 355 358 360 359 358 360 362 361 360 361 360 359 359 359 359 359 359 358 357 356 356 357 356 355 356 357 356 356 355 355 355 355 355 354 355 356 356 356 356 354 354 355 355 353 352 351 349 348 348 348 348 347 347 347 347 348 347 348 349 352 353 352 349 349 350 349 348 348 349 350 350 350 350 351 351 352 353 352 351 350 349
346 345 344 347 352 354 356 357 357 357 359 359 359 361 361 359 358 359 359 359 358 359 358 357 356 355 355 354 354 354 354 355 355 355 355 356 356 356 356 356 356 357 356 355 355 355 355 354 352 351 350 350 349 349 347 345 345 345 345 345 346 347 349 350 350 352 352 352 351 348 349 351 352 351 352 352 352 351 352 353 354 354 354 352 350
348 347 345 344 347 351 352 353 353 352 354 356 358 358 359 359 357 357 357 357 358 357 357 356 356 355 354 354 352 352 353 354 355 355 355 354 353 354 355 356 357 358 357 358 357 356 356 354 353 352 350 350 347 346 345 344 344 345 344 344 346 347 348 350 352 353 355 354 351 352 354 355 354 354 354 354 353 351 351 353 355 355 354 351 349
352 350 348 346 345 348 349 351 352 350 349 351 353 355 357 358 357 356 355 357 359 359 358 357 356 355 355 354 352 352 352 352 354 354 352 349 348 349 351 354 355 356 357 357 356 355 354 353 353 350 347 346 345 345 345 345 343 344 343 345 347 349 350 353 354 355 356 356 355 355 357 356 356 356 356 355 353 351 351 354 355 353 352 350 350
357 355 352 350 349 348 348 351 352 350 349 350 351 352 354 356 357 356 356 358 359 360 359 358 359 357 355 354 353 353 353 354 354 352 350 349 349 349 349 349 351 352 354 355 356 355 353 352 351 348 347 347 347 347 347 345 344 346 351 352 353 354 356 356 357 356 356 356 356 357 357 358 357 357 357 354 353 351 351 352 353 352 352 353 352
358 357 355 354 353 351 349 350 350 349 350 354 353 352 353 354 354 355 354 354 355 355 356 356 357 356 355 354 354 352 353 355 355 355 353 353 353 351 350 350 349 349 350 351 354 355 355 355 355 352 351 350 350 351 350 350 351 355 358 359 358 358 358 359 359 359 357 358 359 359 359 359 359 358 356 354 352 350 351 352 352 353 354 354 355
357 357 355 354 355 354 352 352 353 352 352 354 354 353 353 352 352 351 351 353 353 352 354 355 356 357 357 356 355 354 354 353 353 355 356 357 358 358 357 355 352 351 351 350 351 351 354 356 356 357 356 355 355 357 357 356 358 360 360 360 360 359 360 360 361 361 360 360 360 360 360 359 358 357 354 354 352 350 351 352 352 352 354 355 356
356 356 355 353 355 357 356 355 355 353 353 354 354 354 353 353 352 352 351 353 354 352 352 353 354 356 357 357 357 356 355 355 355 357 360 362 364 363 361 360 360 358 357 357 356 355 356 356 356 357 358 357 357 358 357 356 357 358 359 359 359 359 358 358 359 359 360 361 360 358 358 357 355 352 352 353 352 350 351 351 353 354 354 356 356
355 356 355 353 354 355 355 354 354 352 351 354 355 355 354 353 353 352 350 352 355 355 354 353 353 356 357 358 360 358 357 357 358 360 362 362 361 361 360 359 360 358 356 356 357 357 358 358 357 357 357 356 356 356 356 355 355 355 355 355 356 356 356 356 357 357 357 358 356 354 354 354 353 352 353 353 352 352 354 355 355 355 355 356 356
352 353 354 355 355 352 349 349 351 350 350 351 352 353 354 353 352 351 352 354 355 354 352 354 357 359 358 359 360 358 357 358 359 359 360 357 356 357 359 359 358 357 355 353 354 355 355 355 355 356 356 355 355 355 354 354 355 355 355 355 356 355 355 356 358 356 356 355 354 353 355 356 356 355 355 355 355 357 357 356 355 354 355 356 356
353 352 352 353 353 350 347 349 350 348 348 349 350 350 352 352 351 352 354 356 353 351 350 352 355 355 356 357 357 356 356 358 358 358 358 355 355 356 358 358 358 358 356 354 354 355 354 355 355 354 354 353 353 354 354 354 355 356 356 356 356 356 355 355 357 355 355 354 354 356 357 357 357 357 357 357 357 357 358 356 354 354 357 357 357
350 350 349 349 350 348 348 349 348 346 347 348 349 350 350 350 351 352 354 355 352 351 351 351 351 353 355 356 356 354 356 356 355 355 354 353 353 356 357 357 356 357 357 356 356 355 354 353 351 349 348 349 351 353 354 354 354 355 355 357 357 356 355 356 356 356 355 356 356 357 358 358 358 358 358 358 357 357 356 356 356 356 357 358 358
347 348 348 348 349 347 346 346 344 344 345 345 346 347 347 349 349 350 352 354 353 351 351 349 349 352 353 354 354 353 354 353 352 352 352 350 348 349 350 352 353 355 354 350 347 346 343 341 339 340 342 345 349 353 354 354 355 356 356 357 358 357 356 356 356 355 356 356 357 357 358 359 358 358 358 357 357 358 357 357 358 359 358 358 358
Wind_Speed
12 10 10 9 8 8 7 6 6 6 5 5 5 4 4 4 4 4 4 4 4 4 5 6 6 6 5 5 6 5 4 4 4 3 4 5 4 5 6 7 7 7 6 6 5 4 4 4 3 2 2 2 2 2 3 4 4 5 5 6 6 7 7 8 9 9 9 9 9 9 10 11 12 13 14 15 15 16 15 15 15 16 17 18 20
12 11 10 9 8 8 8 7 7 6 6 5 4 4 4 4 3 4 4 3 3 2 3 5 6 5 4 4 5 5 5 4 4 4 5 6 5 6 8 8 8 8 8 7 6 6 5 5 4 3 3 3 4 4 4 5 5 6 6 7 7 7 8 9 9 10 9 10 10 10 11 12 13 14 15 16 16 16 16 16 16 17 18 19 21
11 11 9 8 8 8 8 7 7 6 5 5 4 4 4 4 4 4 3 3 2 2 3 5 6 5 4 4 4 5 4 3 4 6 6 5 5 5 7 8 8 7 7 7 6 6 5 5 4 4 4 5 5 5 6 6 7 7 8 8 9 9 9 10 10 11 11 11 11 11 12 13 14 14 15 15 15 15 15 16 16 17 18 18 20
10 9 8 8 7 7 7 7 6 5 5 5 5 4 3 4 3 3 2 2 2 2 2 4 5 5 5 5 4 4 3 1 4 6 7 6 3 3 3 5 7 7 6 6 5 5 5 5 5 5 5 5 6 6 7 7 8 8 8 9 9 10 10 11 11 11 11 11 11 11 11 12 13 14 14 14 14 14 14 15 15 15 16 16 17
8 7 7 7 7 7 7 7 6 5 4 4 4 4 4 4 3 3 2 2 2 2 3 5 4 4 6 5 4 4 3 3 5 5 5 6 4 3 3 1 3 5 6 6 6 5 5 5 5 5 6 6 7 7 8 8 8 8 8 8 8 8 8 8 9 8 9 9 9 9 10 10 11 12 13 13 13 13 13 14 15 15 16 17 17
7 5 6 7 7 6 7 6 5 4 4 3 4 5 5 4 3 3 1 1 3 1 3 6 4 3 4 4 4 3 2 4 5 4 4 5 4 2 2 2 1 3 3 4 6 6 5 5 5 6 6 7 7 8 8 9 9 9 9 10 9 9 8 7 7 7 7 8 9 9 10 10 11 12 12 12 12 13 14 14 16 16 17 17 17
6 4 5 6 6 6 6 6 4 4 4 4 4 4 4 4 4 4 3 2 4 3 4 4 3 4 3 3 5 2 3 5 3 5 6 4 3 2 3 3 3 3 4 4 5 7 6 5 5 7 7 8 8 8 9 10 10 10 10 10 10 9 9 9 9 9 9 9 10 11 11 11 11 12 11 11 12 14 15 16 17 17 18 18 18
5 4 4 5 6 6 6 5 3 3 3 4 4 3 4 4 5 5 5 5 1 5 5 3 4 5 3 3 4 2 4 4 1 6 7 4 3 2 3 4 3 3 4 2 3 6 7 6 5 7 7 8 9 9 10 10 9 10 10 10 9 9 10 10 10 10 10 10 10 10 10 11 10 10 10 10 12 13 15 15 17 17 18 19 19
5 3 3 5 5 5 6 5 3 3 2 2 3 3 3 4 4 5 3 5 2 4 4 4 5 4 4 4 4 2 3 3 4 8 6 3 3 2 2 4 3 4 4 4 4 5 6 7 6 6 8 8 9 10 10 10 9 9 9 9 9 9 9 9 9 9 9 9 9 9 9 9 9 9 9 10 11 12 13 15 17 18 18 19 19
6 3 3 5 5 5 5 4 3 2 1 1 3 3 3 4 4 4 3 4 4 4 2 2 3 3 4 5 4 2 4 5 4 5 5 5 5 3 5 5 5 6 5 3 4 5 6 8 6 4 8 11 11 10 10 9 9 9 9 9 9 10 10 10 10 10 10 9 9 9 9 9 9 9 9 10 11 12 14 16 18 19 20 22 22
6 3 2 4 5 4 4 3 3 2 0 1 3 3 3 3 3 3 3 3 3 4 2 2 2 3 5 6 4 3 4 5 3 4 5 7 5 3 4 4 2 4 6 4 3 7 8 9 7 3 7 11 11 10 9 8 8 9 9 9 10 10 10 11 11 11 11 11 10 10 9 9 9 9 9 10 11 12 15 17 19 21 23 24 25
6 4 2 2 4 4 4 3 3 2 0 0 2 2 2 2 3 4 4 2 2 2 1 2 3 4 3 5 5 4 5 3 3 5 6 7 5 1 2 5 4 3 7 8 5 8 9 9 9 7 7 8 10 11 10 9 8 8 8 8 9 10 10 10 10 11 11 11 11 11 10 10 9 9 9 9 11 12 15 17 20 22 24 25 27
5 4 3 2 2 3 4 2 2 2 0 1 1 2 2 2 2 4 4 2 3 2 2 3 3 4 2 5 6 5 6 4 3 4 7 8 7 4 3 4 6 5 7 8 6 8 9 10 11 10 11 9 9 11 10 10 10 8 8 8 9 9 10 10 10 11 11 11 11 11 10 10 9 9 9 10 11 12 14 17 19 22 24 25 27
4 3 3 3 2 2 3 2 1 2 1 0 1 1 1 2 2 2 4 2 4 4 4 5 1 4 3 5 6 4 4 3 3 4 7 8 6 5 4 4 6 6 5 7 8 8 8 11 11 10 12 11 9 8 7 8 10 10 9 9 10 10 11 10 11 11 11 11 11 11 10 10 10 10 10 11 11 12 14 16 19 21 23 25 26
5 4 3 3 2 2 3 2 1 1 1 1 1 1 1 2 1 0 3 3 2 5 5 6 5 1 2 3 4 3 2 3 2 3 6 7 5 4 6 7 5 4 5 6 7 6 5 7 9 8 9 9 6 5 5 7 10 11 11 11 11 11 12 11 11 11 11 11 11 11 11 11 10 10 11 12 12 13 14 16 18 21 23 24 25
5 4 4 3 2 2 2 2 2 1 1 1 1 2 2 1 1 2 2 6 1 5 4 5 6 4 1 1 3 4 2 1 3 6 7 5 6 6 8 10 5 3 6 6 5 5 5 6 7 7 7 6 6 6 7 8 10 12 12 12 12 12 12 12 12 12 12 12 12 12 11 11 11 11 12 12 13 13 14 16 18 20 22 24 24
6 4 4 3 2 2 1 2 2 2 2 2 2 2 2 1 2 1 1 4 3 3 4 4 4 4 3 3 4 4 0 2 3 5 6 5 5 5 6 8 5 3 3 3 5 6 4 6 7 6 6 5 6 7 7 8 9 10 11 12 13 13 13 13 12 12 12 12 12 13 12 12 12 12 12 13 13 14 14 16 17 19 21 23 24
6 5 4 4 3 2 2 2 2 2 3 2 2 2 2 2 2 1 2 4 4 2 3 4 4 2 3 2 1 1 1 2 2 2 2 4 3 2 2 5 5 3 2 3 6 7 4 5 5 4 4 5 5 5 6 7 8 10 10 11 13 14 14 13 13 13 12 13 13 13 13 13 13 13 13 13 13 14 14 15 17 18 20 22 23
7 6 4 4 3 3 2 2 2 3 3 2 3 3 2 2 2 2 2 3 3 5 4 2 3 2 2 2 2 1 2 2 2 1 1 1 1 1 2 4 4 3 3 4 5 5 3 2 2 2 4 7 6 5 7 8 9 11 12 12 14 16 16 14 14 14 13 13 13 14 14 14 14 13 13 13 13 14 14 15 16 17 18 20 22
6 6 5 5 3 3 2 2 2 2 3 3 3 2 1 2 2 2 2 2 2 3 4 3 1 2 2 2 1 0 1 1 3 3 2 1 0 1 3 5 6 4 3 3 4 3 1 0 1 1 2 5 6 6 9 10 10 11 12 15 18 17 15 15 14 14 14 13 13 13 14 14 14 14 14 14 14 14 14 15 16 16 17 18 20
6 6 6 5 4 3 3 3 3 2 3 3 2 1 1 1 1 1 0 1 1 2 2 4 4 3 3 2 3 2 2 1 2 3 2 3 1 2 1 2 2 1 2 3 3 2 2 2 2 1 1 2 4 6 9 10 10 10 11 17 19 15 14 14 14 14 13 12 12 12 13 13 14 14 14 14 15 15 15 15 15 16 16 17 19
7 6 6 5 5 4 4 3 3 3 2 1 1 2 2 2 2 1 0 1 1 2 1 3 3 3 1 1 2 3 2 2 2 2 1 2 2 2 3 2 3 3 0 2 3 2 3 5 3 2 2 3 4 7 9 10 10 8 11 19 18 14 14 13 13 12 11 11 12 12 13 13 14 14 14 14 15 16 16 16 15 16 16 16 17
7 6 6 6 5 5 5 4 3 2 1 1 2 3 3 3 3 1 1 1 1 2 3 3 1 2 3 2 3 3 2 3 2 1 2 3 2 2 3 2 2 3 2 3 1 2 2 3 3 2 4 5 6 8 10 11 10 7 12 18 16 13 14 13 11 11 11 12 14 13 13 13 14 14 14 14 15 15 16 16 16 16 16 16 16
5 6 6 6 6 4 4 3 2 2 2 1 1 2 2 2 1 1 1 1 2 3 3 4 2 3 4 3 4 4 2 3 3 2 1 2 3 2 2 3 3 2 2 1 2 4 3 2 4 4 5 6 8 10 12 12 9 10 14 16 13 12 13 14 13 13 13 14 14 13 13 13 14 14 14 15 15 15 15 16 16 16 15 15 15
6 5 6 7 6 5 4 3 2 2 2 1 1 1 2 1 1 2 2 1 2 3 3 4 4 4 5 3 4 5 2 2 2 1 2 3 3 3 3 3 4 2 3 3 4 5 4 3 5 4 4 6 9 11 13 13 11 13 16 14 12 12 13 16 16 15 15 14 14 13 13 14 14 15 15 15 15 15 15 15 15 15 15 14 14
6 5 5 6 6 6 5 4 3 3 3 3 2 2 2 2 2 3 2 1 2 3 3 4 4 4 5 5 6 8 6 3 2 3 3 2 1 3 3 2 4 4 3 2 3 4 3 4 4 4 3 4 8 10 11 13 13 13 14 14 11 11 13 16 16 14 14 14 14 14 14 15 16 16 16 16 16 16 16 15 15 15 14 14 13
6 5 4 5 5 5 5 5 4 4 4 4 4 3 3 3 2 3 2 2 3 4 4 4 4 4 4 5 5 6 7 6 5 4 5 4 4 4 2 2 3 3 3 3 4 3 3 2 1 2 3 3 8 11 11 13 12 10 12 13 11 11 12 15 14 13 14 16 16 17 16 16 16 17 17 16 16 16 15 16 15 15 14 13 12
6 6 5 5 5 5 5 5 5 4 4 5 4 4 4 4 3 3 3 3 2 3 5 4 4 4 4 4 4 5 5 6 6 5 6 6 5 4 4 4 3 3 3 2 3 3 4 2 2 4 5 6 8 10 10 11 10 9 12 12 10 10 12 14 13 11 13 16 18 19 18 17 17 17 17 16 16 15 15 15 15 15 14 12 12
6 7 7 6 6 6 5 5 6 5 5 5 5 4 4 4 4 4 4 3 2 3 5 4 5 5 4 3 4 5 4 4 5 4 4 4 5 5 4 5 3 2 3 2 2 5 6 6 4 4 3 6 7 8 9 9 10 11 11 11 10 10 12 15 14 11 12 14 17 19 20 19 17 16 15 15 15 15 15 15 15 14 14 12 11
7 5 6 7 6 6 6 5 5 6 6 6 6 6 5 5 4 5 5 4 3 4 4 5 5 5 4 4 4 4 4 5 5 3 2 2 3 4 3 3 2 1 1 3 4 5 8 9 7 2 3 7 8 9 9 8 9 10 10 11 11 11 15 17 13 11 12 13 14 17 19 19 17 15 14 14 14 15 15 15 14 14 13 12 11
7 5 5 7 7 7 7 7 6 6 7 7 6 6 6 6 5 6 6 5 5 5 5 5 5 4 3 4 4 4 4 5 5 4 3 2 4 4 2 1 1 2 2 2 4 5 7 10 10 9 9 9 9 9 9 10 10 10 10 11 11 14 19 18 13 12 14 14 13 15 18 20 17 14 13 13 14 15 15 16 15 14 12 11 10
9 8 8 8 7 8 8 8 7 7 7 7 7 7 7 7 6 5 5 5 5 5 6 6 5 4 3 4 4 4 4 4 5 5 5 4 4 4 2 1 3 3 2 3 5 6 7 9 11 11 11 10 10 9 9 10 11 11 11 12 14 16 18 17 15 16 17 15 12 14 20 21 17 14 13 13 15 16 16 16 16 14 13 11 10
10 10 10 9 8 8 8 7 7 7 7 7 7 7 7 7 7 6 5 5 5 6 5 6 6 5 4 5 5 5 5 5 5 5 5 5 6 4 2 3 4 4 3 4 6 7 7 8 10 11 11 11 11 9 9 11 11 12 13 14 15 16 16 16 16 19 19 14 10 17 23 21 19 17 15 14 16 17 16 16 16 15 13 12 10
10 10 10 10 10 9 9 8 7 7 7 7 8 8 8 8 8 8 7 7 7 6 6 6 6 6 5 5 6 6 7 6 6 6 5 6 7 4 2 4 5 4 4 5 6 8 8 9 9 11 11 10 10 10 10 11 12 13 14 14 15 15 16 16 17 19 17 11 14 23 22 18 19 19 16 16 18 18 17 16 16 15 13 12 11
11 11 10 10 10 10 9 8 8 8 7 8 9 9 8 8 8 8 7 7 7 7 7 7 6 6 6 6 7 7 7 6 5 6 5 5 6 5 4 5 5 6 6 6 6 8 10 10 10 11 11 11 11 11 10 11 12 13 14 14 15 16 16 16 17 19 16 16 21 23 18 17 21 19 16 19 21 19 17 16 16 15 13 11 10
12 11 11 11 9 10 10 9 9 9 9 9 10 9 9 9 9 9 7 7 7 7 7 7 7 6 6 6 7 7 6 5 5 6 6 5 5 4 5 5 5 6 6 6 6 7 9 11 11 12 12 12 12 12 11 12 13 13 14 15 16 16 16 17 17 18 18 20 22 19 17 21 20 16 18 22 22 19 17 16 16 15 13 11 10
13 12 11 11 10 10 11 11 10 11 11 11 11 10 10 9 9 9 9 8 9 9 8 8 8 7 7 7 7 7 6 6 6 7 6 5 5 5 5 5 5 6 6 7 8 8 9 11 12 12 13 13 13 12 12 13 14 14 14 15 16 15 16 16 17 18 19 19 20 20 20 21 18 18 22 23 21 19 17 15 15 15 13 12 10
13 13 12 12 12 11 12 12 11 11 12 12 12 11 11 10 10 9 9 9 9 10 10 9 9 9 9 9 9 8 8 8 7 7 5 5 6 6 6 6 6 7 8 8 8 9 10 11 12 13 13 13 13 12 12 13 15 15 15 15 15 15 15 16 17 19 19 19 20 21 20 19 19 22 23 22 20 19 16 13 13 13 12 11 10
14 14 14 13 13 12 12 13 12 12 12 12 12 12 12 11 10 10 10 10 10 10 10 10 10 10 10 10 10 9 9 9 8 7 6 6 6 6 6 6 7 7 8 9 9 10 11 11 12 12 13 13 13 13 14 14 14 14 15 15 15 15 15 16 18 19 20 21 21 20 19 20 22 23 22 20 19 17 16 14 12 10 10 10 10
15 15 15 15 14 14 14 14 13 13 13 14 13 13 13 13 12 11 10 10 11 10 10 10 10 10 11 11 11 10 10 10 9 8 6 5 5 6 6 6 7 8 9 10 10 10 11 12 12 12 13 13 14 14 14 14 13 14 15 16 15 15 15 16 18 19 20 20 20 20 20 21 23 23 21 19 17 16 16 14 9 8 9 11 12
15 15 15 15 15 15 15 15 14 15 15 15 14 14 14 13 12 13 12 11 11 11 10 11 11 11 11 11 11 10 9 9 9 9 8 7 7 7 7 7 7 8 9 10 10 11 11 12 12 13 13 13 14 14 14 14 15 16 16 16 15 15 17 18 19 19 19 19 20 20 21 22 24 22 19 17 15 15 16 9 4 6 10 13 14
15 14 14 15 16 16 15 15 15 15 15 15 14 15 14 13 12 12 12 10 9 9 10 11 11 11 11 11 11 11 10 9 10 11 12 11 11 10 9 9 9 9 9 10 11 11 11 12 13 13 14 14 14 15 15 16 17 17 17 16 16 17 18 18 19 20 19 18 19 21 23 23 22 20 18 16 14 14 13 5 3 6 13 15 16
14 14 14 14 15 16 15 15 15 15 13 13 14 15 15 15 13 11 10 9 9 9 11 11 11 11 12 12 12 12 12 11 11 12 12 11 10 11 12 12 12 12 12 12 12 11 11 12 13 14 15 15 16 17 17 18 18 18 17 17 17 18 18 16 17 20 19 17 19 22 25 23 20 18 18 16 14 14 11 7 8 14 16 15 15
13 14 14 15 15 15 14 15 15 13 9 9 12 14 15 16 16 14 12 11 12 13 13 13 13 12 12 12 12 12 11 9 8 9 10 9 10 11 12 13 14 15 15 16 15 14 13 12 13 15 16 16 18 19 18 19 20 19 19 19 17 17 17 17 17 19 20 19 20 22 23 21 17 16 17 17 15 14 13 12 14 16 15 14 15
13 14 16 16 15 15 15 15 11 7 7 8 10 12 13 14 16 16 14 14 14 15 14 13 13 13 12 12 12 11 10 8 8 9 9 9 10 11 12 13 14 14 15 16 16 15 15 14 15 16 16 17 19 19 19 20 21 20 20 19 18 17 17 18 19 22 23 22 20 20 21 20 16 15 16 17 16 15 14 15 15 15 14 15 15
15 15 16 17 15 13 13 12 6 3 5 7 8 10 12 13 14 15 16 15 15 15 15 14 14 13 12 12 12 12 9 6 7 8 7 6 7 9 11 13 13 13 13 13 14 13 14 15 16 16 16 18 19 18 19 20 19 19 19 19 19 19 21 22 23 25 24 21 19 18 19 19 17 16 16 16 16 15 15 16 17 16 15 15 14
16 15 16 17 16 12 8 5 3 3 5 7 7 9 11 12 13 14 14 15 15 16 16 15 15 14 13 12 11 10 8 6 8 9 8 7 7 8 10 12 13 13 13 13 12 12 12 13 15 16 17 18 18 18 20 20 20 20 20 20 21 21 23 23 23 23 22 19 17 17 17 18 18 18 17 16 16 16 16 17 18 17 16 16 15
18 16 17 16 15 11 6 4 3 3 5 7 8 9 9 10 10 10 11 12 13 13 14 12 11 10 9 9 8 5 5 7 8 9 10 11 9 9 10 11 12 12 13 13 13 13 14 15 15 16 17 18 19 21 22 21 20 20 20 19 19 19 19 20 20 20 19 17 17 16 16 17 17 17 17 17 17 18 17 17 17 15 13 13 13
17 16 16 13 11 10 8 8 8 7 6 7 8 8 8 9 8 7 9 10 11 12 13 11 8 9 6 5 7 7 4 5 6 7 9 10 9 9 10 11 11 11 11 11 12 15 16 15 16 18 20 21 22 23 23 21 20 19 19 18 17 18 18 17 17 19 19 19 18 15 14 15 16 17 18 18 18 18 18 17 16 15 13 13 14
13 13 12 8 5 8 10 10 9 7 5 6 7 8 9 9 8 7 9 10 9 9 10 9 7 8 4 4 5 5 4 5 6 7 9 10 9 9 10 11 11 11 10 9 10 13 14 15 17 19 20 20 21 22 22 21 19 17 17 18 18 19 19 17 17 19 19 18 16 15 14 16 17 17 18 19 19 18 17 16 16 16 16 16 16
8 10 11 9 8 11 12 10 7 5 4 4 5 6 7 7 8 9 9 9 9 9 8 8 8 8 5 3 4 5 5 7 8 9 10 10 9 8 9 11 10 9 8 8 9 12 14 15 17 18 18 18 18 19 19 19 17 16 16 17 17 17 17 18 19 18 15 14 15 16 16 16 17 17 18 18 16 15 16 16 16 16 16 16 17
Wind_Direction
126 126 124 122 120 118 114 109 106 103 100 93 87 80 71 72 67 70 71 64 89 106 115 119 110 105 110 118 117 104 93 93 105 106 98 115 89 51 70 79 77 81 82 81 83 82 79 75 64 53 35 5 337 335 336 334 331 327 323 317 311 312 310 310 311 311 310 311 311 313 313 316 317 316 315 313 311 309 305 301 297 295 292 289 288
121 119 118 118 116 113 109 107 102 101 102 92 85 82 75 72 64 70 72 67 85 95 104 113 107 104 108 115 114 103 106 112 114 119 108 112 106 67 64 73 73 75 76 77 78 76 74 69 62 50 36 28 16 7 356 347 340 334 330 325 321 318 313 312 311 310 308 308 309 312 315 316 316 315 313 312 310 309 308 304 302 298 294 291 290
121 121 122 121 119 117 113 109 103 99 97 90 77 67 69 71 65 62 64 70 81 86 100 110 110 112 114 110 109 106 117 143 132 116 102 97 109 89 61 61 64 66 68 71 71 68 64 56 47 38 28 21 12 4 356 349 344 338 333 329 323 317 313 309 306 305 303 303 304 306 309 311 312 313 313 314 314 314 313 310 308 305 302 300 299
120 121 122 121 118 114 111 107 102 96 86 79 70 60 65 76 71 49 50 79 91 113 122 110 111 121 122 111 108 111 100 102 105 99 95 90 102 123 83 50 47 51 56 57 57 57 53 45 36 27 20 14 8 0 356 351 346 342 338 330 320 313 307 304 304 303 302 301 302 305 308 311 315 318 319 324 325 324 322 319 318 314 310 306 303
118 118 116 114 113 112 111 107 100 90 77 64 58 52 54 64 73 68 61 93 106 150 133 108 107 116 119 118 105 104 108 92 91 95 106 106 98 103 111 69 13 25 44 43 36 39 37 32 25 19 17 9 7 5 2 1 358 358 359 351 342 335 322 316 316 314 316 316 317 320 322 324 326 329 332 335 335 333 331 326 322 315 309 307 304
117 115 114 113 110 111 109 105 101 90 77 63 61 56 54 52 52 56 15 110 98 83 106 109 108 86 88 105 99 97 113 86 85 91 83 91 94 80 92 91 344 314 339 19 21 22 23 23 21 14 15 15 16 15 12 14 17 20 19 13 10 8 4 360 358 354 354 350 346 345 343 343 342 343 345 344 343 342 339 332 326 322 320 320 318
114 104 112 119 114 112 108 106 103 89 80 70 70 62 58 52 33 29 358 18 98 94 87 97 103 94 72 80 90 83 91 83 92 109 88 82 87 64 53 41 26 342 323 332 1 14 19 15 18 17 21 25 20 17 19 23 26 24 19 17 16 16 18 17 15 11 8 2 357 355 354 354 353 351 350 349 350 348 344 340 337 337 337 337 335
120 112 116 122 117 117 115 115 104 92 91 76 76 62 62 60 31 40 20 339 105 123 108 107 108 116 145 123 98 58 95 103 95 95 83 71 79 64 78 76 47 6 2 4 343 3 21 15 12 19 22 23 16 16 21 24 24 23 18 17 19 19 19 15 13 10 7 3 358 357 357 357 356 356 358 359 358 354 351 351 351 351 349 348 344
133 128 125 126 123 125 125 125 113 103 96 73 85 64 57 62 33 39 16 328 343 113 123 141 137 140 149 122 103 65 80 79 56 86 88 66 71 34 79 89 39 348 0 48 26 354 8 14 12 25 25 14 13 17 19 21 24 27 25 26 28 27 26 22 19 17 13 9 3 2 2 4 5 6 10 10 7 4 4 6 4 2 1 360 354
146 135 120 127 125 123 127 131 120 110 149 92 92 66 44 55 45 32 7 343 8 55 73 121 137 137 122 106 105 84 82 90 78 101 114 104 102 74 48 42 34 31 17 35 55 19 357 357 350 11 28 17 13 15 16 26 34 40 45 46 48 47 45 42 39 36 30 24 17 15 15 17 18 17 21 21 17 17 15 14 11 7 7 7 4
150 140 116 131 131 126 130 144 134 117 199 149 98 74 49 37 31 7 358 347 4 43 35 353 45 72 87 97 101 85 81 102 116 105 103 104 109 100 64 43 56 78 36 14 51 44 20 356 341 341 22 17 18 20 19 31 42 48 53 54 55 54 53 51 49 47 43 39 33 28 27 26 27 26 27 26 21 19 15 12 10 6 5 7 8
149 144 124 126 128 133 142 153 141 130 293 109 89 71 53 21 17 353 348 338 346 62 45 352 67 67 67 98 104 113 104 117 156 128 122 120 105 113 127 74 61 78 49 41 34 34 24 5 4 4 359 3 17 22 20 26 29 33 36 38 42 41 42 43 43 44 42 42 40 35 35 32 31 28 24 21 15 11 8 6 5 3 2 6 8
150 146 135 125 117 134 150 167 141 134 44 23 47 44 17 349 17 344 332 356 5 47 51 10 104 122 128 129 124 135 131 142 194 155 139 138 126 119 137 92 81 79 53 51 36 24 25 23 26 11 354 1 11 8 11 18 13 11 15 14 18 20 21 25 25 30 31 32 35 32 33 32 28 24 16 11 8 4 3 1 3 3 360 4 9
154 146 144 153 147 143 156 179 131 131 170 253 329 358 350 345 11 328 317 357 29 52 48 3 303 155 140 141 134 136 136 140 204 166 135 136 137 126 134 126 95 84 65 70 55 37 37 37 40 23 6 15 17 3 4 12 6 8 13 5 4 5 4 7 8 12 16 17 21 21 21 21 18 15 10 7 4 1 1 360 0 2 359 3 9
157 153 157 164 163 169 174 179 160 157 197 222 284 303 306 316 356 28 314 303 42 79 59 18 7 67 138 171 137 107 117 127 130 110 104 120 120 91 112 110 80 73 83 82 59 47 64 56 60 57 30 22 22 21 11 354 349 357 8 4 359 360 357 358 358 359 4 4 6 7 6 6 3 3 2 1 1 358 358 359 359 0 359 2 8
159 161 165 157 165 196 183 171 183 189 179 213 254 243 242 259 76 76 320 298 323 93 79 44 30 18 335 228 91 62 36 108 91 58 47 89 100 61 89 96 69 65 73 69 70 77 80 60 64 71 49 26 20 25 11 356 349 348 356 357 355 354 351 351 352 352 357 359 359 358 356 355 352 352 353 353 356 355 355 356 356 358 359 1 6
161 167 164 155 170 197 192 179 188 201 194 204 225 221 229 179 107 92 339 329 339 94 105 97 64 29 15 26 63 76 11 337 34 57 45 56 80 66 87 93 77 70 72 85 93 84 65 45 48 52 46 32 18 8 355 356 355 346 345 344 346 347 341 340 342 343 348 352 354 354 353 351 348 347 347 348 351 351 351 353 353 356 359 0 4
165 168 160 159 171 176 193 207 190 205 216 225 234 213 205 160 101 32 29 24 352 5 78 107 110 86 74 81 67 42 98 74 26 51 57 39 68 91 93 110 121 128 147 140 81 59 40 45 41 22 17 20 17 358 341 348 349 344 339 333 335 337 331 329 331 332 337 343 348 349 349 349 347 346 345 346 347 347 347 348 350 353 357 0 2
170 164 160 163 174 178 187 220 212 207 214 225 244 224 164 117 81 41 28 44 10 354 0 51 111 121 102 141 207 353 37 95 107 154 107 53 154 186 37 72 83 80 104 115 92 63 23 44 53 347 343 356 6 357 341 342 343 347 347 339 334 329 321 319 322 325 329 335 340 342 343 344 344 345 345 345 346 346 345 345 347 350 355 360 1
166 165 173 171 174 186 187 222 235 218 216 214 237 257 91 84 82 74 32 26 23 14 357 337 13 87 62 3 334 177 243 108 121 177 179 133 44 18 48 48 29 11 32 63 96 102 58 22 23 336 323 345 349 339 331 331 337 343 342 341 339 328 317 314 319 323 326 330 334 336 337 338 339 342 344 344 345 344 344 343 344 347 352 358 0
169 174 179 179 178 187 188 214 235 225 231 222 209 222 125 129 160 142 98 12 4 21 5 325 337 55 82 11 341 306 278 248 178 218 170 126 352 338 78 69 41 347 351 355 12 59 33 315 294 244 225 327 331 320 320 326 331 330 328 337 342 335 320 316 320 325 329 332 333 333 334 334 334 336 340 342 343 343 342 341 341 344 348 354 360
176 180 181 186 183 191 193 201 224 218 232 258 191 189 183 189 199 182 255 337 346 329 322 321 339 2 32 64 298 290 302 287 263 299 7 141 209 182 143 170 181 157 288 315 332 351 349 325 297 245 286 308 317 316 314 316 317 314 325 337 342 340 330 322 322 328 336 340 337 334 332 331 331 331 334 337 339 340 339 338 339 341 345 350 357
175 178 184 191 182 192 202 195 211 215 221 252 226 216 204 194 189 176 236 289 308 309 311 302 302 298 280 216 241 243 195 244 265 315 312 327 332 139 126 278 230 138 220 217 195 263 275 309 291 298 314 307 312 317 315 314 308 310 334 340 339 336 335 331 329 332 337 339 337 335 331 329 330 329 330 331 334 336 336 335 336 338 342 347 353
176 176 183 185 175 188 204 189 197 216 219 235 244 258 250 198 176 207 229 261 291 299 304 295 289 282 268 229 246 252 184 240 256 178 182 356 313 284 74 332 323 73 290 295 10 305 301 319 295 309 328 322 319 319 320 320 315 317 334 341 329 317 329 336 336 334 333 334 335 335 333 330 329 328 329 329 329 331 332 332 333 334 339 344 349
184 180 182 180 177 182 189 181 188 212 215 216 213 268 292 291 285 265 246 244 285 292 291 289 290 284 286 291 290 290 264 261 282 218 191 178 240 291 29 336 306 335 343 358 352 318 314 297 274 284 324 328 318 316 318 318 313 311 324 333 315 300 318 332 335 336 336 337 336 335 334 331 329 328 327 327 327 326 326 327 328 331 335 341 346
180 178 177 180 181 174 176 184 191 207 211 212 211 210 237 257 281 284 284 291 284 286 277 278 284 274 288 307 310 317 328 317 290 281 271 216 113 2 11 329 306 318 338 314 293 295 279 263 247 259 307 317 305 303 303 305 302 300 318 332 317 301 315 327 333 342 346 345 343 338 334 330 327 326 326 326 325 324 322 321 322 325 330 337 343
167 174 171 177 183 168 177 192 192 204 210 210 214 210 215 225 245 265 274 271 268 281 277 274 280 275 286 301 303 315 323 313 304 322 334 349 31 22 352 343 325 322 319 275 278 283 266 295 351 298 299 293 300 299 290 295 293 293 322 331 317 308 317 324 331 344 352 353 351 347 341 335 328 324 323 324 325 325 323 319 317 318 323 331 340
165 182 180 182 190 185 196 197 190 204 208 209 217 207 206 220 230 240 249 252 247 272 280 279 279 272 270 285 290 294 301 308 316 341 356 349 347 346 352 14 1 329 320 291 306 294 259 247 216 224 244 263 288 296 288 292 293 303 325 323 310 309 313 320 324 332 346 349 351 353 349 344 337 329 325 324 326 327 326 323 318 314 317 322 333
190 192 185 187 194 197 211 203 189 201 205 207 216 210 211 225 225 226 236 246 246 259 272 278 279 277 273 272 279 289 294 301 307 328 3 343 316 322 1 36 30 343 322 311 330 314 300 291 252 205 230 271 284 294 294 299 300 311 324 315 308 307 310 318 312 306 327 336 342 350 351 348 344 340 335 331 330 328 326 325 322 317 315 316 324
210 198 181 187 196 201 215 214 195 200 208 208 208 208 217 225 225 231 232 234 243 246 255 267 270 274 285 289 292 295 296 301 307 324 13 357 316 316 1 50 40 282 294 310 312 309 310 309 300 303 305 295 301 305 309 314 303 311 325 314 307 307 313 319 306 292 308 317 325 338 345 347 345 345 347 342 337 333 329 326 324 321 318 316 319
208 203 193 195 200 201 208 214 206 204 210 208 204 205 215 221 226 232 222 214 233 245 244 248 254 257 268 281 288 290 294 302 306 306 306 306 306 306 323 51 290 246 221 277 298 301 306 306 306 309 305 307 315 314 317 318 307 315 326 315 309 310 314 319 314 309 309 303 308 327 339 343 341 342 346 345 339 333 328 324 320 320 319 317 319
203 203 211 213 207 206 210 212 210 208 210 210 207 204 211 222 230 234 220 210 228 245 246 245 247 245 245 258 264 269 278 285 287 286 283 276 274 283 297 302 288 282 235 231 270 292 300 301 303 306 309 316 319 314 317 316 312 320 323 317 315 314 316 319 321 323 315 297 295 324 336 338 338 337 338 342 341 332 324 320 316 316 316 315 317
207 203 210 214 212 212 216 215 213 209 206 212 214 206 210 219 225 233 230 223 233 240 244 248 251 249 243 248 254 255 260 264 269 276 277 270 262 252 242 258 272 284 265 250 273 291 298 299 301 305 310 315 314 314 318 315 315 321 320 317 317 315 318 322 323 323 314 293 301 330 332 330 334 335 331 335 340 334 323 317 315 315 314 312 314
209 209 210 213 213 214 218 218 217 212 202 212 223 219 218 220 221 228 221 212 224 237 239 242 249 252 246 245 252 251 249 246 250 262 267 271 277 274 253 265 270 281 285 279 288 300 302 304 305 305 308 312 312 314 316 312 314 317 316 316 317 317 319 323 323 320 312 306 323 327 321 323 333 332 327 330 337 336 327 316 313 315 314 312 312
212 214 215 216 212 211 217 217 213 214 210 216 227 227 224 222 225 236 230 212 216 228 233 237 240 244 244 244 251 253 252 249 249 263 270 272 282 294 293 287 286 290 293 289 292 300 302 306 309 307 310 314 311 309 310 311 312 313 312 314 316 316 318 321 322 320 320 323 325 320 316 325 331 326 326 330 331 333 332 321 313 313 313 311 308
218 216 214 216 209 204 215 220 214 217 218 219 227 229 227 226 228 234 235 227 227 230 233 236 237 241 245 247 251 253 259 263 260 264 266 259 265 276 281 284 283 285 288 288 292 296 298 302 305 306 309 309 306 306 310 311 310 309 312 314 314 313 315 318 321 324 326 325 325 327 327 327 326 324 327 328 325 328 332 327 317 311 310 308 303
221 218 211 211 208 202 212 221 220 222 224 222 226 229 229 229 229 231 231 229 232 235 236 237 237 240 244 247 251 251 252 253 253 257 261 262 270 274 275 277 279 287 293 293 292 293 293 297 301 303 303 301 301 306 309 309 309 309 312 313 312 312 314 317 320 324 326 325 329 332 327 323 327 328 325 324 322 322 323 325 321 313 308 305 299
222 222 214 209 211 209 213 220 220 221 224 224 226 230 233 233 230 231 231 228 230 234 236 237 236 235 237 240 243 243 244 249 252 259 266 271 274 277 281 286 287 290 291 289 288 289 288 291 296 299 300 301 305 307 310 310 309 308 308 309 310 313 315 317 319 322 325 328 328 325 322 323 327 326 323 321 320 318 316 317 319 317 311 307 301
220 224 219 211 211 213 214 218 221 221 223 226 227 228 233 237 236 235 235 235 235 235 236 240 240 237 236 237 237 237 237 241 247 254 260 264 270 276 282 286 290 292 293 294 295 294 294 295 297 299 301 305 308 307 307 304 301 302 307 310 310 312 315 316 316 319 322 324 322 320 322 324 323 323 323 321 319 318 313 305 305 313 317 315 311
223 226 223 216 214 217 218 219 222 223 224 226 228 228 230 234 236 236 236 239 240 241 242 244 245 246 245 244 243 242 238 235 235 240 249 261 273 279 284 289 294 296 297 299 300 299 299 299 299 301 302 302 301 301 303 305 306 309 310 308 307 311 315 315 313 315 316 316 318 319 320 322 323 324 323 320 321 321 314 303 289 293 308 315 316
228 228 227 223 219 219 220 222 224 226 228 228 228 228 227 229 237 239 237 237 240 244 246 247 247 249 251 252 252 250 245 233 223 226 241 263 270 270 278 286 290 292 292 293 294 294 294 295 296 298 297 297 298 303 310 314 312 309 307 308 311 313 314 312 309 309 310 311 315 316 316 318 322 322 319 318 321 323 320 311 253 268 304 315 312
230 230 230 229 226 224 223 224 223 225 230 233 232 231 226 223 232 242 242 240 241 242 244 247 250 250 252 255 255 255 254 248 243 247 254 261 260 256 260 265 268 274 279 281 283 284 286 289 292 296 297 300 305 310 312 312 309 307 311 316 316 314 312 309 306 306 307 310 314 314 311 313 318 317 315 316 318 320 322 315 211 287 311 316 311
231 231 230 229 229 229 226 225 227 229 231 229 227 228 226 221 226 240 248 248 245 244 245 247 248 249 252 254 254 255 255 253 258 261 257 253 254 253 255 259 261 262 264 269 275 281 286 290 293 297 301 304 307 307 307 309 310 312 316 316 312 310 309 306 304 304 307 313 315 311 307 310 315 315 312 313 314 318 319 306 292 299 302 308 314
232 232 232 228 227 230 230 228 230 228 220 212 213 216 220 223 230 240 250 254 253 248 244 244 246 247 250 252 253 254 251 245 246 246 241 247 260 262 259 260 260 259 259 261 264 269 278 286 293 296 299 303 305 306 308 313 314 312 311 309 307 307 306 304 302 300 305 312 312 306 303 307 313 311 310 313 315 317 317 307 302 298 293 300 314
233 232 233 230 226 227 229 232 234 216 187 193 204 207 213 223 231 241 250 255 256 255 250 244 242 242 245 249 253 256 256 253 251 248 245 253 263 268 272 273 270 268 266 263 262 264 267 274 283 290 296 302 304 304 309 317 318 314 311 310 310 310 307 304 300 298 301 306 305 301 297 300 305 305 306 312 314 315 316 312 309 306 301 302 308
229 227 232 236 231 227 229 229 217 175 193 210 215 216 223 231 239 247 254 255 255 257 256 252 249 245 243 243 246 252 262 264 248 241 243 254 262 269 277 279 276 276 276 274 272 272 272 272 274 279 288 297 301 304 309 314 316 314 312 309 308 306 302 298 295 294 296 297 297 295 294 300 310 311 308 311 312 313 318 318 315 311 306 300 299
225 223 232 240 232 229 243 242 151 139 205 222 230 235 238 244 249 253 257 258 255 254 254 255 255 251 246 247 249 248 247 241 230 226 230 247 270 283 284 282 282 287 295 297 293 286 282 279 275 277 286 293 296 302 307 308 309 309 307 304 300 298 295 294 293 293 293 294 296 299 301 308 316 316 313 315 317 317 320 318 313 308 301 295 293
225 222 229 234 227 226 259 286 253 232 235 232 239 249 250 251 255 260 266 269 270 275 280 278 275 275 269 268 284 288 250 236 235 235 245 256 273 292 294 290 293 299 302 301 298 292 288 285 284 285 287 286 287 295 302 304 304 306 306 304 300 294 290 290 292 294 299 304 308 313 313 314 319 319 317 319 320 318 317 316 316 316 309 300 297
216 218 225 229 222 218 228 239 234 233 242 245 247 254 257 254 254 262 272 273 274 283 287 283 299 327 323 284 302 328 319 272 255 252 264 276 287 297 296 294 300 304 299 293 294 296 294 293 295 296 294 291 292 298 302 301 300 303 302 297 298 301 299 295 295 300 307 311 316 324 322 316 322 324 319 318 317 313 312 315 320 323 318 310 304
191 198 209 210 182 170 183 201 208 207 224 244 250 256 260 257 252 261 273 271 264 269 274 275 302 331 325 236 261 288 294 294 290 285 289 296 300 302 301 298 297 299 302 304 304 305 305 305 306 305 304 303 303 304 305 305 303 302 296 286 287 299 303 301 303 309 312 312 320 331 328 319 321 322 319 317 313 307 308 314 317 317 314 310 306
147 157 170 165 133 123 133 149 164 183 221 243 254 265 269 266 259 261 273 279 274 272 274 276 285 291 277 255 265 268 275 291 298 298 299 300 302 305 306 302 297 299 310 319 318 315 313 310 308 307 306 306 304 302 304 307 305 300 293 283 281 290 297 300 305 309 309 311 322 331 327 320 318 318 316 316 311 307 309 312 311 312 310 306 304